BEIDOU-3 M22

Last updated on Tue Sep 22 2026 00:03:02 GMT+0000 (Coordinated Universal Time)

1 44793U 19078A 26264.19844745 -.00000015 00000+0 00000+0 0 9999 2 44793 53.8458 296.4409 0004884 40.1519 319.9464 1.86227575 46436
UTC large
Height (km)
Speed (km/s)
/
Latitude / Longitude
Inclination (degrees)
Orbital Period (minutes)
Azimuth
Elevation
Range (km)
Doppler Factor

Next 0 passes for location: London (51.5072 / 0.1276)

No passes found over London.
BEIDOU-3 M22